Regional Weather Roundup
Issued by NWS

Home | Current Version | Previous Version | Text Only | Print | Product List | Glossary On
Versions: 1 2 3 4 5 6 7 8 9 10 11 12 13 14 15 16 17 18 19 20 21 22 23 24 25 26 27 28 29 30 31 32 33 34 35 36 37 38 39 40 41 42 43 44 45 46 47 48 49 50
000
ASUS43 KMKX 190611
RWRWI

WISCONSIN REGIONAL WEATHER ROUNDUP
NATIONAL WEATHER SERVICE MILWAUKEE/SULLIVAN WI
1200 AM CST SUN FEB 19 2017

NOTE: "FAIR" INDICATES FEW OR NO CLOUDS BELOW 12,000 FEET WITH NO
SIGNIFICANT WEATHER AND/OR OBSTRUCTIONS TO VISIBILITY.

WIZ001-002-006>008-014>016-023>028-190700-
NORTHWEST WISCONSIN

CITY           SKY/WX    TMP DP  RH WIND       PRES   REMARKS
SUPERIOR ARPT  MOCLDY    41  30  64 CALM      29.84R
6HR MIN TEMP:  38; 6HR MAX TEMP:  49;

ASHLAND        CLOUDY    41  29  62 SW8       29.82R
6HR MIN TEMP:  41; 6HR MAX TEMP:  48;

HAYWARD        CLOUDY    33  28  81 CALM      29.84R
6HR MIN TEMP:  32; 6HR MAX TEMP:  46;

SIREN          MOCLDY    40  34  78 CALM      29.86R
6HR MIN TEMP:  40; 6HR MAX TEMP:  49;

CUMBERLAND     CLOUDY    36  32  87 CALM      29.85R
RICE LAKE      CLOUDY    36  32  85 CALM      29.86R
6HR MIN TEMP:  35; 6HR MAX TEMP:  48;

CHETEK         CLOUDY    35  32  87 CALM      29.85R
6HR MIN TEMP:  35; 6HR MAX TEMP:  46;

LADYSMITH      CLOUDY    36  32  85 CALM      29.85R
6HR MIN TEMP:  36; 6HR MAX TEMP:  48;

EAU CLAIRE     CLOUDY    36  32  85 S3        29.84S
6HR MIN TEMP:  35; 6HR MAX TEMP:  47;

MENOMONIE      PTCLDY    34  32  92 CALM      29.86R
6HR MIN TEMP:  34; 6HR MAX TEMP:  49;

NEW RICHMOND   CLOUDY    36  32  85 CALM      29.85R
6HR MIN TEMP:  36; 6HR MAX TEMP:  48;

OSCEOLA        CLOUDY    35  32  88 CALM      29.88R
6HR MIN TEMP:  35; 6HR MAX TEMP:  46;

$$

WIZ003>005-009-010-017-018-190700-
NORTH CENTRAL WISCONSIN

CITY           SKY/WX    TMP DP  RH WIND       PRES   REMARKS
MANITOWISH WTR PTCLDY    30  28  91 CALM      29.80R
6HR MIN TEMP:  29; 6HR MAX TEMP:  46;

ARBOR VITAE    CLEAR     32  28  84 CALM      29.81R
6HR MIN TEMP:  32; 6HR MAX TEMP:  48;

WOODRUFF       CLEAR     32  28  84 CALM      29.81R
6HR MIN TEMP:  32; 6HR MAX TEMP:  48;

RHINELANDER    CLEAR     40  30  67 W5        29.80F
6HR MIN TEMP:  39; 6HR MAX TEMP:  48;

EAGLE RIVER    CLEAR     41  27  55 W5        29.79S
6HR MIN TEMP:  38; 6HR MAX TEMP:  47;

LAND O LAKES   PTCLDY    42  27  54 W3        29.80S
6HR MIN TEMP:  33; 6HR MAX TEMP:  46;

PHILLIPS       PTCLDY    34  31  88 CALM      29.82R
6HR MIN TEMP:  33; 6HR MAX TEMP:  48;

TOMAHAWK       CLOUDY    35  29  78 CALM      29.82S
6HR MIN TEMP:  35; 6HR MAX TEMP:  47;

MEDFORD        MOCLDY    38  32  78 CALM      29.83R
6HR MIN TEMP:  38; 6HR MAX TEMP:  43;

MERRILL        NOT AVBL
$$

WIZ029-030-035-036-043>047-190700-
CENTRAL WISCONSIN

CITY           SKY/WX    TMP DP  RH WIND       PRES   REMARKS
WAUSAU         CLOUDY    38  31  76 CALM      29.81F
6HR MIN TEMP:  36; 6HR MAX TEMP:  45;

MOSINEE        PTCLDY    41  32  70 W7        29.84F
MARSHFIELD     PTCLDY    36  30  79 SW6       29.83S WCI  31
6HR MIN TEMP:  36; 6HR MAX TEMP:  45;

STEVENS POINT  CLOUDY    36  31  82 CALM      29.84F
6HR MIN TEMP:  34; 6HR MAX TEMP:  47;

WAUPACA        PTCLDY    43  31  63 CALM      29.84S
6HR MIN TEMP:  40; 6HR MAX TEMP:  50;

WAUTOMA        CLOUDY    35  30  82 CALM      29.85S
6HR MIN TEMP:  33; 6HR MAX TEMP:  44;

WISC RAPIDS    CLOUDY    34  29  82 CALM      29.85F
6HR MIN TEMP:  33; 6HR MAX TEMP:  50;

CAMP DOUGLAS   PTCLDY    31  28  88 CALM      29.86S
6HR MIN TEMP:  30; 6HR MAX TEMP:  42;

$$

WIZ011>013-019>022-031-037>040-048>050-190700-
NORTHEAST WISCONSIN

CITY           SKY/WX    TMP DP  RH WIND       PRES   REMARKS
ANTIGO         CLOUDY    35  30  82 CALM      29.81F
6HR MIN TEMP:  33; 6HR MAX TEMP:  41;

SHAWANO        MOCLDY    45  32  61 W5        29.82F
6HR MIN TEMP:  45; 6HR MAX TEMP:  49;

OCONTO         PTCLDY    39  30  70 W5        29.80S
6HR MIN TEMP:  38; 6HR MAX TEMP:  49;

STURGEON BAY   CLOUDY    45  31  58 W10       29.81R
6HR MIN TEMP:  45; 6HR MAX TEMP:  48;

GREEN BAY      CLOUDY    41  33  73 W7        29.82R
6HR MIN TEMP:  40; 6HR MAX TEMP:  47;

MANITOWOC      PTCLDY    46  31  55 MISG      29.82R
6HR MIN TEMP:  46; 6HR MAX TEMP:  50;

APPLETON       CLOUDY    37  28  70 W10       29.81S WCI  30
CLINTONVILLE   PTCLDY    43  32  65 W5        29.83S
OSHKOSH        CLOUDY    43  30  60 W6        29.83S
6HR MIN TEMP:  43; 6HR MAX TEMP:  49;

$$

WIZ032>034-041-042-053>061-190700-
SOUTHWEST WISCONSIN

CITY           SKY/WX    TMP DP  RH WIND       PRES   REMARKS
LA CROSSE      CLEAR     33  29  85 SE3       29.88R
6HR MIN TEMP:  33; 6HR MAX TEMP:  48;

SPARTA         CLEAR     28  25  89 CALM      29.89R
6HR MIN TEMP:  28; 6HR MAX TEMP:  44;

VIROQUA        CLEAR     43  30  59 CALM      29.87S
6HR MIN TEMP:  38; 6HR MAX TEMP:  51;

BOSCOBEL       CLEAR     29  27  92 CALM      29.89S
6HR MIN TEMP:  29; 6HR MAX TEMP:  53;

PRAIRIE DU CHI PTCLDY    32  30  93 CALM      29.88S
6HR MIN TEMP:  32; 6HR MAX TEMP:  52;

PLATTEVILLE    CLEAR     38  37  96 CALM      29.88S
6HR MIN TEMP:  38; 6HR MAX TEMP:  54;

$$

WIZ056-057-062-063-064-067-068-190700-
SOUTH CENTRAL WISCONSIN

CITY           SKY/WX    TMP DP  RH WIND       PRES   REMARKS
REEDSBURG      PTCLDY    32  31  94 CALM      29.87R
6HR MIN TEMP:  32; 6HR MAX TEMP:  52;

BARABOO/DELLS  PTCLDY    34  30  85 CALM      29.87R
6HR MIN TEMP:  33; 6HR MAX TEMP:  51;

LONE ROCK      PTCLDY    30  27  88 CALM      29.89R
6HR MIN TEMP:  29; 6HR MAX TEMP:  51;

MINERAL POINT  CLEAR     46  34  61 CALM      29.88R
MADISON        CLEAR     31  30  96 CALM      29.86S
6HR MIN TEMP:  31; 6HR MAX TEMP:  48;

MIDDLETON      CLEAR     34  33  96 CALM      29.87F
6HR MIN TEMP:  32; 6HR MAX TEMP:  48;

WATERTOWN      CLOUDY    30  30 100 CALM      29.85S
6HR MIN TEMP:  30; 6HR MAX TEMP:  44;

MONROE         CLEAR     48  37  66 N8        29.87R
JANESVILLE     CLEAR     36  34  93 CALM      29.88R
$$

WIZ051-052-058>065-066-070>072-190700-
SOUTHEAST WISCONSIN

CITY           SKY/WX    TMP DP  RH WIND       PRES   REMARKS
MILWAUKEE      PTCLDY    49  37  63 W5        29.86R
6HR MIN TEMP:  42; 6HR MAX TEMP:  59;

WAUKESHA         N/A     41  34  75 W6        29.87R
MILWAUKEE/TIMM CLEAR     41  32  70 W3        29.86R
RACINE         CLEAR     47  37  68 W7        29.87R
6HR MIN TEMP:  46; 6HR MAX TEMP:  55;

KENOSHA        CLEAR     36  33  89 W3        29.86R
6HR MIN TEMP:  36; 6HR MAX TEMP:  55;

FOND DU LAC    CLOUDY    46  28  49 W6        29.84R
6HR MIN TEMP:  36; 6HR MAX TEMP:  52;

SHEBOYGAN      MOCLDY    43  30  60 W3        29.83S
6HR MIN TEMP:  37; 6HR MAX TEMP:  50;

WEST BEND      MOCLDY    37  32  81 W3        29.85R
JUNEAU         CLOUDY    41  31  67 SW3       29.86S
6HR MIN TEMP:  40; 6HR MAX TEMP:  50;

$$

LSZ147-162-190700-
LAKE SUPERIOR

STATION/POSITION TIME  TEMP    WIND        PRES    WAVE
                       AIR SEA DIR/SP/G            HT/PER
                 (UTC) (F)     (DEG/KT/KT) (MB)    (FT/S)
DEVILS ISLAND    0600   40     260/ 14/ 15 1010.0R
PORT WING        0540   37     190/  5/  6 1010.2R
SAXON HARBOR     0540   39     180/  3/  6 1009.1S
$$

LMZ867-665-643>646-190700-
LAKE MICHIGAN

STATION/POSITION TIME  TEMP    WIND        PRES    WAVE
                       AIR SEA DIR/SP/G            HT/PER
                 (UTC) (F)     (DEG/KT/KT) (MB)    (FT/S)
CHAMBERS ISLAND  0540   42     210/  6/  9 1008.5R
NORTHPORT PIER   0540   45     270/  2/  8 1008.1R
SISTER BAY



USA.gov is the U.S. government's official web portal to all federal, state and local government web resources and services.